Погода в Майском

Россия / Республика Бурятия     54°35′44″N   110°47′54″E
темп.,
°C
ветер,
м/с
пор.,
м/с
влажн.,
%
обл.,
%
осадки,
мм/ч
давл.,
гПа
погр.,
м
21 января, пт
пт2123:00−16юз1198100 0.3 103412
02:00−17ссз009879 0.5 10359
05:00−17ссв019877 0.1 103511
08:00−17ссв119880 0.2 10379
11:00−15ссв119483 0.1 1037106
14:00−13юз119162 0.1 1035182
17:00−20з1110036 0.0 10379
20:00−23ссв1110097 0.0 103910
22 января, сб
сб2223:00−22св0098100 0.1 10409
02:00−23ссв119899 0.1 10409
05:00−24с019887 0.1 10419
08:00−26св009880 0.1 10429
11:00−22ссв019641 0.0 104179
14:00−18ююз119239 0.0 1038116
17:00−23юз1110089 0.0 10399
20:00−25св1110096 0.0 10409
23 января, вс
вс2323:00−26св119956 0.0 10419
02:00−27в0110040 0.0 10419
05:00−28всв0010042 0.0 10419
08:00−28вюв0010032 0.0 10419
11:00−22ююв009619 0.0 103964
14:00−18ююз11935 0.0 103691
17:00−23ююз111005 0.0 10379
20:00−25в0010063 0.0 10399
24 января, пн
пн2423:00−26всв0110070 0.0 10409
02:00−27вюв009871 0.0 10409
05:00−28вюв009865 0.0 10409
08:00−29с009956 0.0 10419
11:00−24всв009645 0.0 104075
14:00−20юз119412 0.0 1037127
17:00−25зюз11995 0.0 10389
20:00−28с119957 0.0 10409
25 января, вт
вт2523:00−28с119883 0.0 10419
02:00−28ссз119884 0.1 10419
05:00−29ссз119889 0.0 10409
08:00−29с119890 0.1 10419
11:00−24ссв019682 0.0 103996
14:00−21юз109346 0.1 1037167
17:00−26зсз119920 0.0 10389
20:00−29ссв1110062 0.0 10409